Weather History for PAFA - June, 2014

Change the Weather History Date:

Saturday, June 7, 2014

  Actual Average Record
Temperature  
Mean Temperature 62 °F 58 °F  
Max Temperature 77 °F 69 °F 83 °F (1958)
Min Temperature 47 °F 47 °F 34 °F (1992)
Degree Days  
Heating Degree Days 3 7  
Month to date heating degree days 60 58  
Since 1 June heating degree days 60 58  
Since 1 July heating degree days 12369 13567  
Cooling Degree Days 0 0  
Month to date cooling degree days 0 0  
Year to date cooling degree days 0 1  
Since 1 June cooling degree days 0 0  
Growing Degree Days 12 (Base 50)    
Moisture  
Dew Point 38 °F    
Average Humidity 43    
Maximum Humidity 80    
Minimum Humidity 11    
Precipitation  
Precipitation 0.00 in 0.04 in 0.93 in (1945)
Month to date precipitation 0.26 0.24  
Year to date precipitation 1.35 2.40  
Snow  
Snow 0.00 in 0.00 in 0.00 in (2002)
Month to date snowfall 0.0 0.0  
Since 1 June snowfall 0.0 0.0  
Since 1 July snowfall 48.9 65.0  
Snow Depth 0.00 in    
Sea Level Pressure  
Sea Level Pressure 29.67 in    
Wind  
Wind Speed 6 mph (NE)    
Max Wind Speed 10 mph    
Max Gust Speed -    
Visibility 10 miles    
Events      
T = Trace of Precipitation, MM = Missing Value Source: NWS Daily Summary

Daily Weather History Graph

Daily Weather History Graph

Search for Another Location

Airport or City:

Trip Planner

Search our weather history database for the weather conditions in past years. The results will help you decide how hot, cold, wet, or windy it might be!

Date:

Astronomy

Jun. 07, 2014 Rise Set
Actual Time 3:17 AM AKDT 12:25 AM AKDT
Civil Twilight Sun does not rise Sun does not rise
Nautical Twilight Sun does not rise Sun does not rise
Astronomical Twilight Sun does not rise Sun does not rise
Moon 4:18 PM AKDT (6/7) 2:29 AM AKDT (6/7)
Length of Visible Light 24h 00m
Length of Day
21h 08m
Waxing Gibbous, 69% of the Moon is Illuminated
Jun 7
Waxing Gibbous
Jun 12
Full
Jun 19
Last Quarter
Jun 27
New
Jul 5
First Quarter

Hourly Weather History & Observations

Time (AKDT) Temp. Dew Point Humidity Pressure Visibility Wind Dir Wind Speed Gust Speed Precip Events Conditions
12:53 AM 55.0 °F 44.1 °F 67% 29.78 in 10.0 mi North 5.8 mph - N/A   Mostly Cloudy
1:53 AM 53.1 °F 43.0 °F 69% 29.78 in 10.0 mi North 5.8 mph - N/A   Partly Cloudy
2:53 AM 50.0 °F 43.0 °F 77% 29.78 in 10.0 mi NE 4.6 mph - N/A   Partly Cloudy
3:53 AM 48.0 °F 42.1 °F 80% 29.77 in 10.0 mi NE 8.1 mph - N/A   Partly Cloudy
4:53 AM 48.0 °F 42.1 °F 80% 29.77 in 10.0 mi NNE 4.6 mph - N/A   Partly Cloudy
5:53 AM 50.0 °F 43.0 °F 77% 29.76 in 10.0 mi ENE 5.8 mph - N/A   Partly Cloudy
6:53 AM 51.8 °F 42.8 °F 71% 29.75 in 10.0 mi East 4.6 mph - N/A   Partly Cloudy
7:53 AM 54.0 °F 43.0 °F 66% 29.75 in 10.0 mi NE 3.5 mph - N/A   Partly Cloudy
8:53 AM 59.0 °F 43.0 °F 55% 29.74 in 10.0 mi NE 4.6 mph - N/A   Partly Cloudy
9:53 AM 63.0 °F 41.0 °F 45% 29.73 in 10.0 mi North 3.5 mph - N/A   Partly Cloudy
10:53 AM 66.0 °F 35.1 °F 32% 29.71 in 10.0 mi East 5.8 mph - N/A   Partly Cloudy
11:53 AM 68.0 °F 36.0 °F 31% 29.69 in 10.0 mi East 9.2 mph - N/A   Partly Cloudy
12:53 PM 71.1 °F 37.0 °F 29% 29.67 in 10.0 mi East 9.2 mph - N/A   Partly Cloudy
1:53 PM 73.0 °F 30.9 °F 21% 29.66 in 10.0 mi Variable 3.5 mph - N/A   Partly Cloudy
2:53 PM 73.9 °F 30.9 °F 21% 29.64 in 10.0 mi Variable 3.5 mph - N/A   Partly Cloudy
3:53 PM 75.0 °F 32.0 °F 21% 29.62 in 10.0 mi ENE 4.6 mph - N/A   Partly Cloudy
4:53 PM 75.0 °F 30.0 °F 19% 29.61 in 10.0 mi Variable 3.5 mph - N/A   Scattered Clouds
5:53 PM 75.0 °F 28.9 °F 18% 29.59 in 10.0 mi North - - N/A   Scattered Clouds
6:53 PM 73.9 °F 30.0 °F 20% 29.57 in 10.0 mi ENE 5.8 mph - N/A   Mostly Cloudy
7:53 PM 73.0 °F 30.9 °F 21% 29.56 in 10.0 mi WNW 3.5 mph - N/A   Mostly Cloudy
8:53 PM 71.1 °F 35.1 °F 27% 29.55 in 10.0 mi NW 6.9 mph - N/A   Mostly Cloudy
9:53 PM 68.0 °F 39.0 °F 35% 29.55 in 10.0 mi West 6.9 mph - N/A   Mostly Cloudy
10:53 PM 64.9 °F 39.0 °F 39% 29.56 in 10.0 mi SW 5.8 mph - N/A   Mostly Cloudy
11:53 PM 66.0 °F 37.9 °F 36% 29.57 in 10.0 mi West 10.4 mph - N/A   Mostly Cloudy